Simultaneous Nadir Overpasses (SNOs) Predictions

Prediction of SNOs between METOP-A and TERRA Satellite Orbit:

Table of predicted SNOs for the next 14.0 days since TLE Epoch: 4/14/2017
Index Date (METOP-A) Time (METOP-A) Lat,Lon (METOP-A) SZA (METOP-A ) Date (TERRA) Time (TERRA) Lat,Lon (TERRA) SZA (TERRA ) Distance(km) Time Diff (sec)
1 04/16/2017 01:49:11 81.33,-159.72 74.06 04/16/2017 01:50:17 81.34,-159.54 74.12 3.24 66
2 04/16/2017 02:39:51 -81.34, 8.07 105.90 04/16/2017 02:39:44 -81.34, 8.04 105.91 0.48 7
3 04/18/2017 21:23:33 81.33, -93.39 73.09 04/18/2017 21:24:37 81.32, -93.43 73.11 1.07 64
4 04/18/2017 22:14:13 -81.34, 74.43 106.87 04/18/2017 22:14:03 -81.34, 74.56 106.85 2.20 10
5 04/21/2017 16:57:55 81.33, -27.07 72.14 04/21/2017 16:58:58 81.33, -26.92 72.19 2.46 63
6 04/21/2017 17:48:35 -81.34, 140.77 107.81 04/21/2017 17:48:25 -81.33, 140.71 107.83 1.34 10
7 04/24/2017 12:32:15 81.33, 39.63 71.26 04/24/2017 12:33:20 81.34, 39.60 71.29 0.43 65
8 04/24/2017 13:22:56 -81.33,-152.91 108.74 04/24/2017 13:22:47 -81.34,-152.74 108.72 2.79 9
9 04/27/2017 08:06:37 81.33, 105.91 70.36 04/27/2017 08:07:46 81.32, 105.77 70.37 2.58 69




NCC Satellite Simultaneous Nadir Overpasses (SNOs) Prediction Service
